Theta_e
294 294 294 295 297 298 298 298 298 298 298 298 298 298 298 298 298 298 298 298 298 298 298 298 298 297 297 296 295 295 294 294 294 294 294 294 294 294 294 294 294 294 294 294 294 293 293 292 291 291 291 291
294 294 294 295 296 298 298 298 298 298 298 298 298 298 298 298 298 298 298 298 298 298 298 298 298 297 297 296 296 295 295 294 294 294 294 294 294 294 294 294 295 294 294 294 294 294 293 293 292 292 291 291
293 294 294 295 296 297 298 298 298 298 298 298 298 298 298 298 298 298 298 298 298 298 298 298 298 298 297 297 296 296 295 295 295 295 294 295 294 294 294 294 294 294 294 294 294 293 293 293 293 292 291 291
294 294 294 295 296 297 298 298 298 298 298 298 298 298 298 298 298 298 298 298 298 298 298 298 297 297 297 297 297 297 296 296 296 295 295 295 295 294 294 294 294 294 294 293 293 293 293 293 293 293 292 292
294 293 294 294 295 296 297 298 298 297 298 298 298 297 297 298 298 298 298 298 298 298 298 298 297 297 297 297 297 297 297 297 297 296 296 295 295 294 294 294 294 293 293 293 293 293 293 293 293 293 293 292
294 293 294 294 295 296 296 297 297 297 297 297 297 297 297 297 298 298 298 298 298 298 297 297 297 297 297 297 297 297 297 297 297 297 296 296 295 294 294 293 293 294 293 293 293 293 293 293 293 293 293 292
294 294 293 294 295 295 296 296 296 296 297 297 297 297 297 297 297 298 297 297 297 297 297 297 297 297 297 297 297 297 297 297 297 297 296 296 296 295 294 294 294 294 294 294 293 293 293 293 293 293 293 292
295 294 293 293 294 295 296 296 296 296 296 296 297 297 297 297 297 297 297 297 297 297 297 297 297 296 296 296 296 296 296 296 296 296 296 296 296 296 295 295 295 295 294 294 294 293 293 292 293 292 292 292
295 294 294 293 294 294 295 296 296 296 296 296 296 296 296 296 296 297 297 297 297 296 296 296 296 296 296 296 295 296 296 296 296 296 296 296 295 296 295 295 295 295 295 295 294 294 294 293 292 292 292 292
295 295 294 293 293 294 295 295 295 295 296 296 296 296 295 296 296 296 296 296 296 296 296 295 295 295 295 295 295 295 295 295 295 295 295 295 295 295 294 295 294 295 295 295 295 294 294 294 293 292 291 291
295 295 294 294 293 293 294 294 295 295 295 295 295 295 295 295 295 295 295 295 295 295 295 295 294 294 294 294 294 294 294 294 294 294 294 294 294 294 293 293 293 293 294 294 294 294 294 294 294 293 292 291
296 295 294 294 293 293 294 294 294 294 294 295 295 295 294 294 294 294 294 294 294 294 294 294 294 294 294 294 293 293 293 293 293 293 293 293 293 293 293 293 293 292 292 292 292 293 293 293 293 293 293 292
296 295 295 294 294 293 293 293 294 294 294 294 294 294 294 293 294 293 293 293 293 293 293 293 293 293 293 293 293 293 293 293 293 293 293 293 293 292 292 292 292 292 292 292 291 292 292 292 292 292 292 292
297 296 295 294 294 293 293 293 293 293 293 293 294 294 293 293 293 293 293 293 293 293 292 292 292 292 292 292 292 292 292 292 292 292 292 292 292 291 292 291 291 291 291 291 291 291 291 291 291 291 291 291
297 296 295 295 294 294 293 293 293 293 293 293 293 293 293 293 293 293 293 292 292 292 292 292 292 292 292 291 291 291 291 291 291 291 291 291 291 291 291 291 290 291 291 291 291 291 291 291 291 291 291 291
298 296 295 295 294 294 294 293 293 293 293 293 293 293 292 292 292 292 292 292 292 292 292 292 292 292 291 291 291 290 290 290 290 290 291 290 290 290 290 290 290 290 290 291 291 291 291 291 291 292 291 291
299 297 296 295 295 294 294 294 293 293 293 293 293 293 292 292 292 292 292 292 292 292 292 292 292 291 291 291 290 290 290 290 290 290 290 290 290 290 290 290 291 290 291 291 292 292 292 292 292 292 292 292
300 297 296 295 295 295 294 294 294 294 294 293 293 293 293 293 293 293 292 292 292 292 292 292 292 291 291 291 290 289 289 289 289 289 289 289 289 290 290 290 291 291 291 292 292 292 292 292 293 292 292 293
300 298 296 295 295 295 295 294 294 294 294 294 294 293 293 293 293 293 293 292 292 292 292 292 292 291 291 290 290 289 289 289 289 289 289 289 289 290 290 290 291 291 291 291 292 292 293 293 293 293 293 293
300 298 296 295 295 295 295 294 294 294 294 294 294 294 294 294 294 293 293 293 293 292 292 292 292 292 291 290 290 290 289 289 289 289 290 289 289 289 290 291 291 291 291 291 292 292 293 293 293 293 293 293
301 299 297 296 295 295 295 295 295 295 295 295 294 295 295 295 294 294 293 293 293 293 292 292 292 292 291 291 290 290 289 289 289 289 289 290 289 289 289 290 290 291 291 290 291 292 293 293 293 293 293 294
302 301 299 297 296 295 295 295 296 296 296 296 296 296 296 296 295 295 294 294 293 293 293 293 293 293 293 291 290 290 290 289 289 289 289 290 290 289 288 289 289 290 290 289 290 291 292 293 293 293 293 293
302 301 300 299 298 297 296 296 297 297 297 297 297 297 297 297 296 296 295 295 294 294 294 295 295 295 294 293 292 291 291 290 289 289 289 289 289 289 288 288 288 288 288 288 289 290 292 293 293 293 293 294
302 301 301 300 299 298 297 298 298 298 298 298 298 298 297 297 297 297 296 296 295 295 296 296 296 295 294 294 293 293 292 291 290 289 289 288 288 288 288 288 288 287 287 287 287 289 291 292 292 292 293 294
302 301 301 300 299 299 299 299 299 298 299 298 298 298 297 297 297 297 297 297 296 296 297 297 296 296 295 294 293 293 292 292 291 289 288 288 288 287 287 287 287 286 285 285 285 288 289 290 292 293 293 294
301 301 300 300 300 299 299 299 299 299 298 298 298 298 298 297 297 297 297 297 297 297 297 296 296 296 295 295 294 293 293 292 291 289 288 288 287 287 286 286 287 286 285 284 284 285 285 287 291 292 292 293
301 301 300 300 300 299 299 299 299 299 298 298 298 298 298 298 298 297 297 297 297 297 296 296 296 296 295 295 294 294 293 293 292 290 289 287 287 286 285 285 286 286 285 285 284 284 287 288 289 290 291 290
301 301 300 300 300 299 299 299 299 299 298 298 298 298 298 298 298 298 297 297 297 297 297 296 296 296 295 295 294 294 293 293 292 291 289 288 286 285 284 284 285 286 285 285 285 286 289 287 287 292 290 285
301 301 300 300 299 299 299 299 299 298 299 299 299 298 298 298 298 298 298 297 297 297 297 296 296 295 295 295 294 294 293 293 293 291 289 288 287 285 284 284 284 285 285 284 284 285 287 287 289 293 288 283
301 300 300 299 299 299 298 298 298 299 299 299 299 298 298 298 298 298 298 297 297 297 297 296 296 295 295 294 294 294 293 293 292 291 290 288 287 286 285 284 283 283 283 283 283 283 284 286 288 287 284 284
301 300 299 299 299 298 298 297 298 299 299 299 298 298 298 298 298 298 297 297 297 296 296 296 295 295 294 294 294 293 293 292 292 291 290 288 287 286 285 284 282 282 282 282 282 282 282 283 283 282 281 282
Wind_Speed
9 10 10 10 10 9 9 8 8 6 5 5 4 4 3 3 3 1 1 2 4 4 5 5 6 6 7 6 6 7 7 8 8 9 9 10 10 11 12 12 13 14 14 14 15 15 16 16 16 16 16 16
10 10 11 11 10 10 10 9 8 7 7 6 6 5 4 4 3 2 2 3 4 4 5 5 5 5 5 5 5 6 6 7 8 8 9 9 10 10 10 11 12 13 13 14 14 15 15 16 16 16 16 15
10 11 11 11 11 10 10 10 9 9 8 7 7 6 6 5 4 4 4 4 5 6 6 6 5 5 5 5 5 5 6 7 8 8 9 9 10 10 10 10 11 12 12 13 14 14 15 16 16 16 15 15
11 11 12 12 11 11 11 11 10 10 9 9 8 8 7 7 6 6 6 6 7 7 7 7 6 6 6 5 6 6 7 7 8 9 9 10 10 10 11 11 11 11 12 13 14 14 15 16 16 16 15 15
12 12 12 12 12 12 11 11 11 11 10 10 9 9 9 9 8 8 8 8 8 9 9 9 8 8 7 7 7 7 7 8 9 9 10 11 11 12 12 12 11 12 12 13 14 15 15 15 16 16 15 15
13 13 13 13 13 13 12 12 12 12 11 11 11 10 10 10 11 10 10 10 10 10 10 11 10 10 9 9 8 8 9 9 9 10 10 11 12 12 13 13 12 12 13 13 14 14 15 15 16 16 16 15
14 14 14 14 14 14 13 13 13 12 12 13 12 12 12 12 12 13 12 12 12 12 12 12 12 12 11 11 10 10 10 10 10 11 11 11 12 13 13 14 14 13 13 13 14 14 14 15 16 16 16 16
15 14 14 15 15 15 14 14 14 13 14 14 14 14 13 14 14 14 14 14 14 13 13 14 14 14 13 13 12 12 11 11 11 11 12 12 12 13 13 14 15 15 15 15 14 14 15 15 16 16 16 17
16 15 15 15 15 16 16 15 15 15 15 15 15 15 15 15 15 15 16 16 15 15 15 15 15 15 15 14 14 13 13 13 13 13 12 12 13 13 14 15 15 16 16 16 16 16 16 16 16 17 17 18
16 16 15 15 16 17 17 17 16 16 16 16 16 17 17 17 17 17 17 17 17 16 16 16 16 16 16 16 15 15 14 14 14 14 14 14 14 14 15 15 16 17 17 17 18 17 17 17 17 17 18 18
17 17 16 16 17 18 18 18 18 17 17 17 17 18 19 18 18 18 18 18 18 17 17 17 17 17 17 17 17 17 16 16 15 15 15 15 15 15 16 16 16 17 18 18 19 19 19 18 18 18 18 18
17 17 17 17 18 18 18 19 19 18 18 18 19 19 20 19 19 19 19 19 18 19 18 18 18 18 19 19 18 18 18 18 17 17 17 17 17 17 17 17 17 18 19 19 19 20 20 20 20 20 19 19
18 18 18 18 19 19 19 20 19 19 20 20 20 20 20 20 20 20 20 20 19 19 19 19 19 20 20 20 20 19 19 19 19 19 18 18 18 18 19 19 19 19 20 20 20 20 21 22 22 22 21 21
19 19 19 19 19 20 20 20 20 21 21 21 21 21 21 21 21 21 20 20 20 20 20 20 20 20 21 21 20 20 20 20 20 20 20 19 19 20 20 20 20 21 22 22 21 21 22 23 23 23 23 23
20 20 21 20 19 20 21 21 21 22 22 22 22 22 21 22 22 21 21 21 21 21 21 21 21 21 21 21 21 21 21 21 21 21 21 20 20 21 21 21 21 21 23 24 23 22 23 23 24 24 24 25
21 21 21 21 21 21 21 21 22 23 23 23 22 22 22 22 22 22 22 22 22 22 21 22 22 22 22 22 21 21 22 21 21 21 21 21 21 22 22 23 22 22 23 25 24 24 24 24 24 24 24 25
22 22 21 22 22 21 21 22 23 23 23 23 22 23 23 23 23 22 22 22 22 22 22 23 23 23 23 22 21 21 21 22 22 22 22 22 22 22 23 24 23 23 23 24 25 25 25 25 25 24 24 25
23 23 22 23 22 22 22 23 23 24 23 23 23 23 24 23 23 24 23 23 23 23 23 24 24 24 23 21 21 22 21 22 22 22 23 23 23 23 23 24 24 24 24 24 24 25 25 26 25 25 25 25
24 24 23 23 23 23 23 23 24 24 24 24 24 24 24 24 24 25 25 25 24 24 24 25 25 25 24 22 21 22 22 23 23 23 23 23 24 24 24 24 24 24 24 25 25 25 26 26 26 26 25 25
24 24 24 24 24 23 24 25 26 26 25 25 25 25 25 25 25 26 26 26 25 26 25 26 27 26 24 22 22 23 22 23 24 24 24 24 24 24 25 25 25 24 25 25 26 26 26 27 26 26 26 24
25 25 24 24 24 24 25 26 27 26 26 27 26 27 27 26 27 27 27 27 27 27 27 27 28 27 25 23 23 24 24 25 25 24 25 25 24 24 24 25 26 26 26 26 27 27 27 27 27 28 25 24
26 25 25 25 25 26 27 28 28 27 28 29 29 29 29 28 28 29 29 28 28 28 28 29 29 29 27 24 24 25 26 26 26 26 26 26 26 25 24 25 26 27 27 28 28 28 28 28 29 27 25 26
27 26 26 27 27 27 29 30 29 29 30 31 30 30 30 29 29 29 29 29 29 29 29 29 29 29 27 25 25 26 28 28 28 27 26 26 26 26 26 26 26 26 26 25 26 28 30 30 28 27 27 27
29 28 29 29 29 30 32 32 31 31 31 31 31 31 30 30 30 29 29 30 29 30 30 30 30 30 28 27 27 28 30 30 29 28 27 26 26 27 27 27 27 24 21 22 26 30 29 27 27 28 28 26
31 31 31 31 31 33 33 32 31 31 31 31 31 31 31 30 29 29 29 30 30 31 31 31 31 31 30 29 29 30 30 30 29 28 28 26 26 26 26 27 25 19 16 18 19 21 22 26 31 29 25 22
33 34 33 32 32 32 31 31 31 31 31 30 30 30 31 30 29 29 30 31 31 32 32 33 33 33 33 32 31 31 31 30 30 30 29 27 26 25 23 25 24 19 16 12 9 9 11 19 25 20 18 23
35 36 34 33 32 32 31 31 30 30 31 31 31 33 32 31 31 31 32 32 33 33 34 34 34 34 34 33 33 33 32 31 31 31 29 27 25 24 23 23 23 21 17 12 9 7 5 6 9 9 11 17
37 36 35 34 33 32 32 33 33 33 34 36 36 37 36 34 34 34 34 34 34 34 34 34 35 36 35 35 35 34 34 33 33 32 30 27 24 23 23 22 19 19 17 15 11 5 3 1 3 5 4 6
37 35 35 34 33 32 32 34 35 35 38 41 40 40 40 38 37 36 35 34 34 34 34 34 36 36 37 36 36 36 35 35 34 32 30 27 25 23 23 22 20 20 19 17 14 9 6 2 2 4 2 6
35 34 35 34 32 32 31 32 35 37 40 42 40 39 38 37 35 35 34 33 32 32 33 34 35 36 37 37 37 37 36 36 35 33 31 28 26 24 23 23 22 23 22 19 19 18 17 13 10 7 5 5
34 34 34 34 34 34 32 31 36 42 42 41 39 37 37 36 34 33 33 32 32 32 32 34 35 35 36 37 37 37 36 37 36 34 32 29 27 25 24 22 23 26 24 20 20 20 21 22 22 17 10 5
Wind_Direction
237 231 224 219 217 213 211 205 200 196 192 192 200 204 188 182 184 198 305 344 355 3 9 19 25 31 38 35 27 18 13 9 6 6 5 6 6 6 8 9 10 10 8 6 4 4 5 6 6 5 5 5
240 234 227 223 222 218 217 215 212 211 211 210 211 221 217 213 213 230 276 313 325 334 342 351 359 7 20 24 19 12 6 3 0 359 357 358 358 358 1 3 5 5 4 2 1 360 1 2 3 2 1 2
243 239 233 228 226 224 222 221 221 222 222 222 222 228 233 235 236 243 268 293 308 313 319 324 330 338 350 357 0 357 354 354 352 352 350 350 350 350 350 353 356 358 358 357 356 355 356 357 359 360 358 358
245 243 239 233 231 228 227 227 228 231 232 232 230 234 240 245 249 255 269 281 294 299 301 305 309 315 323 329 334 337 339 341 342 344 344 343 343 343 342 344 347 349 350 350 351 350 350 351 352 355 355 354
245 244 243 238 236 232 232 233 233 236 238 241 240 241 245 250 257 262 269 275 282 288 292 295 298 301 305 310 315 320 325 328 332 335 337 338 338 338 337 337 340 342 343 343 344 344 345 345 345 347 350 351
246 246 245 243 241 237 235 237 238 242 244 246 247 247 251 254 261 266 268 272 276 281 286 289 292 294 297 300 304 309 314 319 323 326 330 333 334 335 334 333 333 333 334 335 335 335 336 336 337 339 342 345
250 250 249 247 245 243 240 241 243 246 248 251 252 252 255 258 263 267 269 272 276 279 283 286 289 291 293 295 299 303 307 311 315 319 322 326 328 330 330 329 327 327 327 326 326 326 327 328 331 333 334 336
254 254 255 252 249 248 245 245 246 249 251 253 256 257 258 260 263 267 271 274 277 279 282 285 288 289 291 293 295 298 302 305 308 312 314 317 319 321 323 323 323 323 322 322 322 321 321 322 324 326 327 328
256 257 259 256 252 250 248 249 249 251 253 255 259 260 261 262 264 267 271 275 277 279 282 284 287 289 290 291 293 295 298 300 302 305 307 309 310 312 314 316 318 318 318 317 318 318 318 319 319 321 322 322
257 258 260 259 256 253 251 251 251 253 255 257 260 262 263 263 265 268 271 274 276 279 280 283 286 288 290 291 292 293 295 297 299 301 303 305 306 308 309 311 311 312 313 312 313 314 315 316 316 316 316 317
258 259 261 260 257 256 255 254 254 255 257 259 260 262 264 265 266 268 271 273 275 277 280 282 284 287 289 290 291 293 294 295 297 299 300 302 303 305 305 305 306 306 307 308 308 309 309 310 311 312 311 311
260 261 261 259 258 258 258 258 258 258 259 260 261 262 264 265 268 269 271 273 274 277 279 281 282 285 286 288 289 291 293 294 295 296 297 299 300 301 301 301 301 301 301 302 303 304 304 305 306 307 306 306
260 260 260 259 260 260 260 261 261 261 260 261 262 263 264 266 268 270 272 274 275 276 277 279 281 284 284 285 287 288 290 291 292 293 295 296 297 298 298 298 298 298 298 298 300 300 301 301 302 302 302 302
258 259 259 259 260 261 261 262 263 262 262 263 264 265 267 268 269 271 273 274 276 277 277 279 280 282 282 282 284 285 286 287 290 291 293 294 295 296 296 297 298 298 298 298 299 299 299 299 299 299 299 298
256 256 258 260 259 259 260 261 261 262 263 263 264 267 269 270 270 271 273 275 276 277 278 279 279 280 280 281 281 282 284 285 287 289 291 292 294 295 295 296 298 299 299 299 300 300 299 298 298 298 298 296
254 255 258 259 259 259 259 260 260 261 263 264 266 268 269 270 271 272 273 275 276 278 278 278 279 279 279 279 279 280 282 284 286 287 289 291 292 294 295 296 298 299 299 299 300 300 299 298 298 297 297 295
256 257 258 258 259 259 259 259 260 262 263 265 267 268 268 270 272 273 274 274 275 277 278 279 278 278 278 278 279 279 281 284 286 287 288 289 291 292 293 294 297 298 297 297 298 298 298 298 298 298 296 294
256 256 257 258 259 259 260 260 261 263 264 265 266 267 268 269 271 273 274 274 275 276 277 279 278 278 278 278 278 279 282 285 285 286 287 288 288 289 291 292 295 297 297 297 298 298 298 298 298 299 298 297
255 256 257 258 259 260 261 262 263 263 264 265 265 267 268 269 271 272 273 273 274 275 275 276 276 276 277 277 278 279 282 283 283 285 285 286 288 289 290 292 294 295 296 297 297 297 297 297 299 300 301 300
255 255 257 258 260 261 261 262 263 264 265 266 265 266 267 268 269 270 271 272 273 274 274 274 274 274 275 276 276 278 279 280 280 282 282 284 286 287 289 291 291 292 294 296 295 294 294 295 297 300 300 299
255 255 257 259 261 261 262 262 263 264 266 266 266 267 268 268 268 268 269 270 271 272 271 272 272 273 273 272 274 276 277 277 277 279 280 282 283 285 286 287 289 290 292 294 293 293 292 294 297 298 298 297
257 257 259 260 261 261 261 262 263 265 265 266 267 268 269 269 268 268 269 270 271 271 270 270 270 271 272 270 271 274 275 275 275 277 279 281 282 282 283 285 286 288 291 293 293 291 291 294 296 296 296 297
258 258 259 259 259 260 260 261 263 264 265 267 268 269 270 270 269 269 271 271 271 271 270 269 269 270 271 270 270 272 274 273 273 274 277 279 280 280 281 283 284 287 290 291 290 290 292 295 294 293 297 297
255 255 257 257 257 258 260 262 264 266 267 269 270 271 272 271 271 271 271 272 271 270 269 269 269 270 270 270 270 271 272 273 274 275 276 277 278 279 281 282 285 287 287 288 291 292 293 292 292 295 297 293
253 253 254 254 255 259 263 266 266 268 270 271 273 273 272 270 270 270 269 270 269 269 269 269 270 270 269 269 269 271 273 275 276 276 276 277 278 279 281 283 286 286 286 290 293 296 297 295 295 297 294 286
255 256 255 255 259 264 269 270 270 271 273 273 273 271 269 268 268 267 268 268 268 268 269 269 269 269 270 270 271 272 274 277 277 275 276 277 277 278 279 280 281 282 284 280 282 301 306 303 301 295 286 285
258 260 259 260 263 266 269 272 272 272 273 272 270 268 267 267 267 268 268 269 268 269 270 270 271 271 272 272 272 273 274 276 276 275 275 275 276 277 277 278 280 281 276 262 277 308 293 299 317 300 284 285
262 262 262 262 263 264 266 269 269 270 270 269 268 268 268 268 268 269 270 271 271 271 272 273 273 274 273 272 271 271 272 273 275 275 274 274 274 274 273 275 279 280 271 260 268 292 268 285 333 283 292 306
265 263 262 262 261 262 262 264 266 266 268 270 268 269 271 272 272 273 273 273 273 274 275 275 275 275 274 273 271 270 269 271 274 273 272 273 273 270 268 269 274 275 270 264 255 239 246 299 300 261 332 339
268 265 263 261 259 259 259 260 263 265 268 272 273 274 278 279 277 277 277 277 277 277 278 277 276 275 273 272 271 269 269 270 271 271 270 271 273 271 269 267 268 267 266 267 260 247 245 251 252 269 333 344
272 269 266 263 260 259 258 258 264 269 272 275 277 279 281 282 280 280 281 282 283 282 282 280 277 275 273 272 271 269 269 269 270 270 270 271 272 272 271 264 260 263 266 267 265 260 257 255 253 259 273 274